Dayton, OH

4:59 AM EDT on August 21, 2017 (GMT -0400)
Cox-Dayton International

Weather History for KDAY - August, 2012

Change the Weather History Date:

Tuesday, August 28, 2012

  Actual Average Record
Temperature  
Mean Temperature 73 °F 71 °F  
Max Temperature 85 °F 82 °F 96 °F (1953)
Min Temperature 61 °F 61 °F 40 °F (1910)
Degree Days  
Heating Degree Days 0 0  
Month to date heating degree days 0 0  
Since 1 June heating degree days 21 22  
Since 1 July heating degree days 0 0  
Cooling Degree Days 8 7  
Month to date cooling degree days 228 224  
Year to date cooling degree days 1131 763  
Since 1 June cooling degree days 948 693  
Growing Degree Days 22 (Base 50)    
Moisture  
Dew Point 59 °F    
Average Humidity 65    
Maximum Humidity 93    
Minimum Humidity 37    
Precipitation  
Precipitation 0.00 in 0.10 in 2.47 in (1912)
Month to date precipitation 1.65 2.67  
Year to date precipitation 18.95 27.99  
Snow  
Snow 0.00 in 0.00 in 0.00 in ()
Month to date snowfall 0.0 0.0  
Since 1 June snowfall 0.0 0.0  
Since 1 July snowfall 0.0 0.0  
Snow Depth 0.00 in    
Sea Level Pressure  
Sea Level Pressure 30.05 in    
Wind  
Wind Speed 7 mph (North)    
Max Wind Speed 18 mph    
Max Gust Speed 22 mph    
Visibility 10 miles    
Events      
T = Trace of Precipitation, MM = Missing Value Source: NWS Daily Summary

Daily Weather History Graph

Daily Weather History Graph

Search for Another Location

Airport or City:

Trip Planner

Search our weather history database for the weather conditions in past years. The results will help you decide how hot, cold, wet, or windy it might be!

Date:

Astronomy

Aug. 28, 2012 Rise Set
Actual Time 7:01 AM EDT 8:13 PM EDT
Civil Twilight 6:33 AM EDT 8:41 PM EDT
Nautical Twilight 6:00 AM EDT 9:14 PM EDT
Astronomical Twilight 5:25 AM EDT 9:49 PM EDT
Moon 6:15 PM EDT (8/28) 3:50 AM EDT (8/28)
Length of Visible Light 14h 08m
Length of Day
13h 12m
Waxing Gibbous, 90% of the Moon is Illuminated
Aug 28
Waxing Gibbous
Aug 31
Full
Sep 8
Last Quarter
Sep 15
New
Sep 22
First Quarter

Hourly Weather History & Observations

Time (EDT) Temp. Heat Index Dew Point Humidity Pressure Visibility Wind Dir Wind Speed Gust Speed Precip Events Conditions
12:56 AM 69.8 °F - 64.4 °F 83% 30.06 in 10.0 mi NW 8.1 mph - N/A   Clear
1:56 AM 68.0 °F - 63.0 °F 84% 30.04 in 10.0 mi NW 6.9 mph - N/A   Clear
2:56 AM 66.0 °F - 61.0 °F 84% 30.04 in 10.0 mi NW 4.6 mph - N/A   Clear
3:56 AM 64.9 °F - 60.1 °F 84% 30.04 in 10.0 mi NW 3.5 mph - N/A   Clear
4:56 AM 63.0 °F - 60.1 °F 90% 30.04 in 10.0 mi NW 3.5 mph - N/A   Clear
5:56 AM 63.0 °F - 59.0 °F 87% 30.04 in 10.0 mi NW 5.8 mph - N/A   Clear
6:56 AM 60.8 °F - 57.2 °F 88% 30.08 in 8.0 mi NNW 6.9 mph - N/A   Partly Cloudy
7:56 AM 62.1 °F - 59.0 °F 90% 30.08 in 7.0 mi NNW 4.6 mph - N/A   Clear
8:56 AM 64.9 °F - 60.1 °F 84% 30.09 in 9.0 mi North 8.1 mph - N/A   Clear
9:56 AM 71.1 °F - 61.0 °F 70% 30.09 in 10.0 mi North 4.6 mph - N/A   Clear
10:56 AM 75.9 °F - 62.1 °F 62% 30.09 in 10.0 mi Variable 4.6 mph - N/A   Clear
11:56 AM 80.1 °F 81.2 °F 62.1 °F 54% 30.09 in 10.0 mi Variable 5.8 mph - N/A   Clear
12:56 PM 81.0 °F 81.3 °F 59.0 °F 47% 30.07 in 10.0 mi NNW 10.4 mph - N/A   Scattered Clouds
1:56 PM 82.0 °F 82.1 °F 59.0 °F 45% 30.07 in 10.0 mi North 10.4 mph 17.3 mph N/A   Partly Cloudy
2:56 PM 84.0 °F 83.0 °F 55.9 °F 38% 30.05 in 10.0 mi North 10.4 mph - N/A   Partly Cloudy
3:56 PM 84.0 °F 83.8 °F 59.0 °F 43% 30.03 in 10.0 mi North 13.8 mph 19.6 mph N/A   Partly Cloudy
4:56 PM 82.9 °F 82.4 °F 57.0 °F 41% 30.03 in 10.0 mi NNE 13.8 mph 21.9 mph N/A   Partly Cloudy
5:56 PM 82.0 °F 81.7 °F 57.0 °F 42% 30.03 in 10.0 mi NE 11.5 mph - N/A   Partly Cloudy
6:56 PM 80.1 °F 80.4 °F 57.0 °F 45% 30.03 in 10.0 mi NNE 16.1 mph - N/A   Scattered Clouds
7:56 PM 77.0 °F - 57.0 °F 50% 30.03 in 10.0 mi NNE 9.2 mph - N/A   Partly Cloudy
8:56 PM 73.0 °F - 57.0 °F 57% 30.04 in 10.0 mi North 5.8 mph - N/A   Partly Cloudy
9:56 PM 71.1 °F - 57.9 °F 63% 30.05 in 10.0 mi North 3.5 mph - N/A   Clear
10:56 PM 70.0 °F - 57.9 °F 65% 30.05 in 10.0 mi Calm Calm - N/A   Clear
11:56 PM 66.0 °F - 57.9 °F 75% 30.05 in 10.0 mi North 4.6 mph - N/A   Clear